{"data":{"norad_id":82875,"intl_designator":"","name":"UNKNOWN","alt_names":[],"object_type":"UNKNOWN","status":"UNKNOWN","operator":null,"country":null,"launch_date":null,"launch_site_code":null,"launch_vehicle":null,"mission":null,"orbit_class":"UNKNOWN","rcs_meters":null,"size_class":null,"mass_kg":null,"dimensions":null,"purposes":[],"wikipedia_slug":null,"has_3d_model":false,"image_url":null,"decayed_at":null,"tle_current":{"epoch":"2026-09-11T04:54:44.981856Z","epoch_age_seconds":821459,"freshness":"AGED","line1":"1 82875U          26254.20468729  .00000224  00000+0  72368-4 0  9994","line2":"2 82875  98.7032 236.4062 0375683 221.2632 135.9589 14.15566967583011","mean_motion":14.15566967,"eccentricity":0.0375683,"inclination_deg":98.7032,"raan_deg":236.4062,"arg_perigee_deg":221.2632,"mean_anomaly_deg":135.9589,"bstar":7.2368e-5,"rev_number":58301,"period_min":101.72602452371,"perigee_km":569.19650160396,"apogee_km":1111.5716315759,"semimajor_km":7218.5210665899,"source":"CELESTRAK","updated_at":"2026-09-20T09:00:32.440616Z"}}}